This demonstration page uses our WeatherBlox Daily Observations layout. Learn more.

Left ArrowRight Arrow

44.89941, -97.11507

Hourly Observations for June 10, 2018

Temp ( °F °C ) Dew Point ( °F °C ) Humidity (%) Winds ( mph kmh ) Pressure ( in mb ) Visibility ( mi km ) Precip ( " mm )
12:53 am 00:53 Cloudy 65 18.3 64 17.8 97 97 ESE 14 22 29.86 1011 10 16 0.00 0.00
1:53 am 01:53 Cloudy 65 18.3 64 17.8 97 97 SE 10 17 29.85 1011 10 16 0.00 0.00
2:53 am 02:53 Cloudy 65 18.3 63 17.2 93 93 ESE 9 15 29.83 1010 10 16 0.00 0.00
3:24 am 03:24 Partly Cloudy 64 17.8 63 17.2 96 96 ESE 5 7 29.80 1009 10 16 0.00 0.00
3:53 am 03:53 Clear 63 17.2 63 17.2 100 100 SE 5 7 29.80 1009 10 16 0.00 0.00
4:53 am 04:53 Clear 62 16.7 61 16.1 96 96 E 6 9 29.78 1009 9 14 0.00 0.00
5:41 am 05:41 Partly Cloudy 61 16.1 61 16.1 100 100 ESE 8 13 29.80 1009 7 11 0.00 0.00
5:50 am 05:50 Mostly Cloudy with Mist and Fog 61 16 61 16 100 100 ESE 7 11 29.80 1009 4 6 0.00 0.00
5:53 am 05:53 Mostly Cloudy with Mist and Fog 61 16.1 61 16.1 100 100 E 7 11 29.81 1010 3 5 0.00 0.00
6:00 am 06:00 Cloudy with Mist and Fog 62 16.7 62 16.7 100 100 ESE 9 15 29.80 1009 2 3 0.00 0.00
6:09 am 06:09 Cloudy with Mist and Fog 62 16.7 62 16.7 100 100 SE 10 17 29.83 1010 1 2 0.00 0.00
6:20 am 06:20 Cloudy with Mist and Fog 62 16.7 62 16.7 100 100 SE 10 17 29.80 1009 1 1 0.00 0.00
6:29 am 06:29 Cloudy with Mist and Fog 62 16.7 62 16.7 100 100 ESE 9 15 29.80 1009 2 2 0.00 0.00
6:35 am 06:35 Cloudy with Mist and Fog 63 17.2 63 17.2 100 100 ESE 12 19 29.80 1009 3 5 0.00 0.00
6:53 am 06:53 Cloudy 64 17.8 63 17.2 96 96 ESE 10 17 29.81 1010 9 14 0.00 0.00
7:00 am 07:00 Cloudy 64 17.8 63 17.2 96 96 SE 12 19 29.80 1009 10 16 0.00 0.00
7:53 am 07:53 Mostly Cloudy 66 18.9 63 17.2 90 90 E 10 17 29.81 1009 10 16 0.00 0.00
8:09 am 08:09 Partly Cloudy 67 19.4 63 17.2 87 87 ESE 8 13 29.77 1008 10 16 0.00 0.00
8:53 am 08:53 Partly Cloudy 68 20 63 17.2 84 84 SE 14 22 29.81 1010 10 16 0.00 0.00
9:17 am 09:17 Mostly Cloudy 69 20.6 64 17.8 84 84 ESE 13 20 29.77 1008 10 16 0.00 0.00
9:53 am 09:53 Mostly Cloudy 70 21.1 64 17.8 82 82 ESE 16 26 29.81 1009 10 16 0.00 0.00
10:01 am 10:01 Partly Cloudy 71 21.7 64 17.8 79 79 ESE 12 19 29.77 1008 10 16 0.00 0.00
10:53 am 10:53 Sunny 72 22.2 64 17.8 76 76 E 17 28 29.78 1008 10 16 0.00 0.00
11:53 am 11:53 Sunny 73 22.8 64 17.8 74 74 ESE 13 20 29.77 1008 10 16 0.00 0.00
12:53 pm 12:53 Sunny 76 24.4 65 18.3 69 69 SE 13 20 29.77 1008 10 16 0.00 0.00
1:53 pm 13:53 Partly Cloudy 76 24.4 65 18.3 69 69 ESE 20 31 29.75 1008 10 16 0.00 0.00
2:53 pm 14:53 Sunny 78 25.6 66 18.9 67 67 ESE 15 24 29.72 1006 10 16 0.00 0.00
3:53 pm 15:53 Sunny 77 25 65 18.3 66 66 E 20 31 29.70 1006 10 16 0.00 0.00
4:53 pm 16:53 Sunny 77 25 65 18.3 66 66 E 13 20 29.71 1006 10 16 0.00 0.00
5:53 pm 17:53 Sunny 76 24.4 64 17.8 67 67 ESE 18 30 29.70 1006 10 16 0.00 0.00
6:53 pm 18:53 Sunny 75 23.9 64 17.8 69 69 ESE 15 24 29.69 1006 10 16 0.00 0.00
7:53 pm 19:53 Mostly Sunny 73 22.8 66 18.9 79 79 ESE 16 26 29.69 1006 10 16 0.00 0.00
8:53 pm 20:53 Mostly Cloudy 70 21.1 66 18.9 87 87 ESE 13 20 29.70 1006 10 16 0.00 0.00
9:51 pm 21:51 Mostly Cloudy 68 20 64 18 88 88 ESE 15 24 29.65 1004 10 16 0.00 0.00
9:53 pm 21:53 Mostly Cloudy 68 20 65 18.3 90 90 ESE 16 26 29.69 1005 10 16 0.00 0.00
10:53 pm 22:53 Cloudy 68 20 65 18.3 90 90 ESE 14 22 29.70 1006 10 16 0.00 0.00
11:53 pm 23:53 Cloudy 68 20 64 17.8 87 87 ESE 16 26 29.69 1006 10 16 0.00 0.00

Powered by AerisWeather